Martinsburg, WV

5:05 PM EST on December 15, 2017 (GMT -0500)
Eastern W Va Regional-Shepherd

Weather History for KMRB - March, 2014

Change the Weather History Date:

Saturday, March 22, 2014

  Actual Average Record
Temperature  
Mean Temperature 52 °F 44 °F  
Max Temperature 68 °F 55 °F 84 °F (1966)
Min Temperature 35 °F 33 °F 16 °F (1988)
Degree Days  
Heating Degree Days 13 21  
Month to date heating degree days 603 541  
Since 1 July heating degree days 4696 4497  
Cooling Degree Days 0 0  
Month to date cooling degree days 0 0  
Year to date cooling degree days 0 0  
Growing Degree Days 2 (Base 50)    
Moisture  
Dew Point 29 °F    
Average Humidity 52    
Maximum Humidity 82    
Minimum Humidity 21    
Precipitation  
Precipitation 0.00 in 0.12 in 1.08 in (1950)
Month to date precipitation 0.61 2.41  
Year to date precipitation 4.36 7.19  
Sea Level Pressure  
Sea Level Pressure 29.90 in    
Wind  
Wind Speed 8 mph (NW)    
Max Wind Speed 28 mph    
Max Gust Speed 38 mph    
Visibility 9 miles    
Events      
T = Trace of Precipitation, MM = Missing Value Source: NWS Daily Summary

Daily Weather History Graph

Daily Weather History Graph

Search for Another Location

Airport or City:

Trip Planner

Search our weather history database for the weather conditions in past years. The results will help you decide how hot, cold, wet, or windy it might be!

Date:

Astronomy

Mar. 22, 2014 Rise Set
Actual Time 7:12 AM EDT 7:25 PM EDT
Civil Twilight 6:45 AM EDT 7:52 PM EDT
Nautical Twilight 6:14 AM EDT 8:24 PM EDT
Astronomical Twilight 5:42 AM EDT 8:56 PM EDT
Moon 12:41 AM EDT (3/22) 10:55 AM EDT (3/22)
Length of Visible Light 13h 07m
Length of Day
12h 13m
Waning Gibbous, 65% of the Moon is Illuminated
Mar 22
Waning Gibbous
Mar 23
Last Quarter
Mar 30
New
Apr 7
First Quarter
Apr 15
Full

Hourly Weather History & Observations

Time (EDT) Temp. Windchill Dew Point Humidity Pressure Visibility Wind Dir Wind Speed Gust Speed Precip Events Conditions
12:53 AM 39.0 °F - 32.0 °F 76% 29.98 in 9.0 mi Calm Calm - N/A   Clear
1:53 AM 39.0 °F - 32.0 °F 76% 29.96 in 8.0 mi Calm Calm - N/A   Clear
2:53 AM 37.9 °F - 32.0 °F 79% 29.92 in 7.0 mi Calm Calm - N/A   Clear
3:53 AM 37.9 °F - 32.0 °F 79% 29.89 in 7.0 mi Calm Calm - N/A   Clear
4:53 AM 35.1 °F - 30.9 °F 85% 29.87 in 7.0 mi Calm Calm - N/A   Clear
5:53 AM 36.0 °F - 30.9 °F 82% 29.85 in 6.0 mi Calm Calm - N/A   Haze
6:53 AM 37.0 °F - 32.0 °F 82% 29.83 in 6.0 mi Calm Calm - N/A   Haze
7:53 AM 37.0 °F 34.5 °F 32.0 °F 82% 29.82 in 4.0 mi West 3.5 mph - N/A   Haze
8:53 AM 44.1 °F - 36.0 °F 73% 29.82 in 6.0 mi Calm Calm - N/A   Haze
9:53 AM 55.9 °F - 32.0 °F 40% 29.83 in 10.0 mi SW 5.8 mph - N/A   Clear
10:53 AM 64.9 °F - 32.0 °F 29% 29.84 in 10.0 mi West 15.0 mph 24.2 mph N/A   Clear
11:53 AM 66.9 °F - 27.0 °F 22% 29.84 in 10.0 mi West 19.6 mph 34.5 mph N/A   Clear
12:53 PM 68.0 °F - 26.1 °F 21% 29.86 in 10.0 mi West 18.4 mph 32.2 mph N/A   Partly Cloudy
1:53 PM 68.0 °F - 26.1 °F 21% 29.86 in 10.0 mi West 23.0 mph 29.9 mph N/A   Clear
2:53 PM 66.9 °F - 26.1 °F 21% 29.87 in 10.0 mi WNW 19.6 mph 28.8 mph N/A   Clear
3:53 PM 66.9 °F - 26.1 °F 21% 29.88 in 10.0 mi West 8.1 mph 24.2 mph N/A   Clear
4:53 PM 66.0 °F - 26.1 °F 22% 29.89 in 10.0 mi NW 18.4 mph 23.0 mph N/A   Clear
5:53 PM 64.0 °F - 26.1 °F 24% 29.91 in 10.0 mi WNW 11.5 mph - N/A   Clear
6:53 PM 61.0 °F - 25.0 °F 25% 29.93 in 10.0 mi NNW 10.4 mph - N/A   Clear
7:53 PM 55.9 °F - 26.1 °F 32% 29.94 in 10.0 mi NNW 8.1 mph - N/A   Clear
8:53 PM 54.0 °F - 26.1 °F 34% 29.97 in 10.0 mi North 12.7 mph - N/A   Clear
9:53 PM 52.0 °F - 28.0 °F 40% 29.99 in 10.0 mi North 11.5 mph - N/A   Clear
10:53 PM 48.0 °F - 28.0 °F 46% 30.03 in 10.0 mi NE 4.6 mph - N/A   Clear
11:53 PM 45.0 °F 41.8 °F 28.0 °F 52% 30.05 in 10.0 mi NNE 5.8 mph - N/A   Clear